Flag Weather past 2 weeks in Armidale, New South Wales, Australia

Now
58 °F

Passing clouds.


Feels Like: 57 °F
Forecast: 55 / 74 °F
Wind: 6 mph from Northwest

Location: Armidale Airport Aws

Current Time: Nov 27, 2014 at 4:33:03 AM

Latest Report: Nov 27, 2014 at 3:00 AM


Visibility: N/A

Pressure: 29.96 "Hg

Humidity: 100%

Dew point: 58 °F

Location of ArmidaleLocation

Historic Weather in Armidale — Graph

°F

Armidale temperature yesterday

Maximum temperature yesterday: 75 °F (at 1:00 PM)
Minimum temperature yesterday: 58 °F (at 6:00 AM)
Average temperature yesterday: 64 °F

Past Weeks' High & Low Weather Summary

 TemperatureHumidityPressure
High94 °F (Nov 23, 3:00 PM)100% (Nov 12, 3:00 AM)30.07 "Hg (Nov 12, 3:00 AM)
Low47 °F (Nov 17, 6:00 AM)8% (Nov 18, 4:00 PM)29.67 "Hg (Nov 16, 4:00 PM)
Average70 °F59%29.93 "Hg
* Reported Nov 12 3:00 AM — Nov 27 3:00 AM, Armidale, Weather by CustomWeather, © 2014

Note: Actual official high and low records may vary slightly from our data, if they occured in-between our weather recording intervals... More about our weather records

Advertising

Armidale weather history for previous 24 hours

 ConditionsComfort  
Time TempWeatherWind HumidityBarometerVisibility
3:00 AM
Nov 27
58 °FPassing clouds.6 mph100%29.96 "HgN/A
1:00 AM58 °FCool.7 mph100%29.98 "HgN/A
12:00 AM58 °FPassing clouds.6 mph100%30.01 "Hg0 mi
10:00 PM
Nov 26
60 °FCool.No wind99%30.02 "HgN/A
9:00 PM62 °FPassing clouds.7 mph98%30.00 "HgN/A
7:00 PM66 °FMild.8 mph78%29.98 "HgN/A
6:00 PM68 °FPassing clouds.10 mph77%29.96 "HgN/A
4:00 PM71 °FMild.10 mph70%29.96 "HgN/A
3:00 PM72 °FPartly sunny.9 mph60%29.98 "HgN/A
1:00 PM75 °FMild.14 mph55%30.00 "HgN/A
12:00 PM73 °FOvercast.6 mph58%30.01 "HgN/A
10:00 AM69 °FMild.15 mph68%30.02 "HgN/A
9:00 AM65 °FOvercast.15 mph84%30.03 "HgN/A
7:00 AM59 °FCool.13 mph100%30.02 "HgN/A
6:00 AM58 °FLow clouds.13 mph100%30.01 "HgN/A
4:00 AM58 °FCool.13 mph100%29.98 "HgN/A
Weather by CustomWeather, © 2014

See weather overviewHow to use our weather pages